Tracking 31080 objects as of 20-Jul-2025
HD Live streaming from Space Station
objects crossing your sky now

CZ-6A DEB

Track CZ-6A DEB now!
10-day predictions


NORAD ID: 54309
Int'l Code: 2022-151BC
Perigee: 832.2 km
Apogee: 885.2 km
Inclination: 98.8 °
Period: 102.0 minutes
Semi major axis: 7229 km
RCS: Unknown
Launch date: November 11, 2022
Source: People's Republic of China (PRC)
Launch site: Taiyaun Space Center, China (TSC)

Note: This is SATELLITE DEBRIS
Your satellite tracking list
Your tracking list is empty




NASA's NSSDC Master Catalog

Two Line Element Set (TLE):
1 54309U 22151BC  25200.72343315  .00000338  00000-0  20603-3 0  9997
2 54309  98.8241 204.6679 0036677 180.5378 179.5760 14.12277933137768
Source of the keplerian elements: AFSPC